Location: Robert Ferguson Observatory
(38.4385°N, 122.5078°W)
Time: 03:41:02
(UTC-08:00)

Daily predictions for brighter satellites

Satellite Brightness Start Highest point End
(mag) Time Altitude Azimuth Time Altitude Azimuth Time Altitude Azimuth
COSMOS 2455 3.5 04:34:27 50° NE 04:34:27 50° NE 04:38:53 10° NNE
Nadezhda 1 Rocket 4.5 04:32:25 38° NNE 04:34:44 59° E 04:41:00 10° SSE
Cosmos 2263 Rocket 4.4 04:44:47 13° N 04:44:47 13° N 04:45:26 10° NNE
H-2A R/B 3.8 04:44:42 49° SW 04:47:35 66° S 05:42:08 10° ESE
ISS -0.7 04:53:09 15° E 04:53:09 15° E 04:53:54 10° ESE
Lacrosse 5 2.8 04:54:30 40° NNE 04:54:42 40° NE 04:59:27 10° ESE
Cosmos 44 4.3 04:59:32 40° S 04:59:32 40° S 05:02:52 10° SSE
BREEZE-M DEB (TANK) 4.3 04:59:30 35° SSE 05:00:14 38° SE 05:07:32 10° ENE
Cosmos 44 Rocket 3.7 05:09:01 56° S 05:09:01 56° S 05:13:07 10° SSE
SKYMED 2 4.3 05:05:05 10° SSE 05:09:16 51° ENE 05:10:43 35° NNE
Cosmos 1386 Rocket 4.4 05:10:30 10° SSW 05:16:46 65° W 05:23:10 10° N
Cosmos 1844 Rocket 2.7 05:16:23 10° SSW 05:21:56 77° ESE 05:27:31 10° NNE
Cosmos 1066 4.5 05:20:34 43° NNW 05:22:21 72° W 05:27:45 10° S
Cosmos 1190 Rocket 4.2 05:25:16 50° NW 05:25:16 50° NW 05:29:38 10° N
Meteor 1-21 Rocket 4.3 05:19:41 10° N 05:25:35 82° E 05:31:19 10° S
Cosmos 1844 4.1 05:20:46 10° S 05:26:27 63° ESE 05:32:06 10° NNE
Atlas Centaur 2 3.5 05:27:22 15° S 05:27:22 15° S 05:29:32 10° SSE
SL-14 R/B 4.3 05:30:56 11° N 05:34:34 45° E 05:38:14 10° SSE
Tiangong 2 4.1 05:34:52 10° S 05:36:26 13° SE 05:37:59 10° ESE
CENTAUR R/B 3.9 05:36:55 21° NNW 05:36:55 21° NNW 05:41:38 10° NNE
IDEFIX/ARIANE 42P 2.5 05:31:49 10° N 05:37:07 83° WNW 05:42:23 10° SSW
COSMOS 2406 3.6 05:33:59 13° NNW 05:39:05 61° ENE 05:44:40 10° SE
Okean-O 2.5 05:38:22 10° N 05:42:47 66° WNW 05:47:09 10° SSW
CZ-2C R/B 4.2 05:38:56 10° SSW 05:43:16 40° W 05:43:16 40° W
Cosmos 1315 Rocket 3.8 05:40:18 10° N 05:44:07 47° ENE 05:47:58 10° SSE
Shenzhou-11 Module 2.5 05:44:33 49° S 05:44:49 51° SSE 05:47:46 10° ENE
Okean 3 Rocket 3.7 05:41:29 10° N 05:45:57 76° E 05:50:19 10° SSE
DMSP B5D1-3 4.5 05:44:50 10° SSE 05:49:58 88° ENE 05:55:07 10° NNW
ATLAS CENTAUR R/B 4.0 05:48:01 10° NNE 05:50:02 13° NE 05:52:06 10° ENE
Cosmos 1076 Rocket 3.5 05:46:37 10° N 05:50:58 82° E 05:55:16 10° S
Cosmos 614 Rocket 3.8 05:47:35 10° SSW 05:52:41 71° WNW 05:57:47 10° NNE
Milstar 3 4.1 05:47:44 10° SW 05:54:01 31° S 05:59:51 10° ESE
Cosmos 1766 Rocket 4.4 05:51:51 10° N 05:56:07 50° E 06:00:23 10° SSE
COSMO-SKYMED 1 2.9 05:53:12 10° S 05:57:19 43° W 05:59:18 26° NW
Feng Yun 1-1 Rocket 4.3 05:52:09 10° N 05:57:22 49° WNW 06:02:32 10° SW
EO 1 Del DPAF 3.3 05:57:38 10° S 06:01:21 54° W 06:03:50 20° NNW
Cosmos 1709 Rocket 4.2 05:55:44 10° SSW 06:01:44 47° WNW 06:07:50 10° N
Thor Agena Rocket 4.4 05:58:41 10° SSE 06:03:43 52° ENE 06:08:49 10° N
Radarsat Rocket 4.1 06:00:01 10° N 06:06:44 60° WNW 06:12:43 10° SSW
Cosmos 2184 Rocket 4.2 06:01:04 10° S 06:07:15 76° E 06:13:33 10° N
Timation 1 Rocket 4.3 06:02:24 10° SSW 06:08:25 82° WNW 06:14:28 10° NNE
Cosmos 1626 3.0 06:06:09 10° N 06:09:47 52° E 06:13:25 10° SSE
Cosmos 1470 3.7 06:06:53 10° SW 06:10:15 26° WNW 06:13:39 10° NNW
SL-08 ROCKET BODY 4.4 06:05:16 10° SSW 06:10:58 57° W 06:16:45 10° N
CZ-4C R/B 3.1 06:05:30 10° NNW 06:12:52 83° ENE 06:20:58 10° SE
CZ-2C R/B 2.5 06:10:28 10° N 06:14:51 46° WNW 06:19:17 10° SW
DELTA 2 R/B (1) 3.6 06:12:12 21° W 06:16:04 86° N 06:21:41 10° E
Centaur D-1A AC-31 3.7 06:12:11 10° SW 06:16:20 33° SSE 06:29:04 10° E
Abrixas rocket 4.4 06:15:39 13° NNW 06:17:00 15° N 06:19:03 10° NE
Cosmos 371 Rocket 3.5 06:13:40 10° NNW 06:18:33 73° ENE 06:23:24 10° SSE
Cosmos 1400 Rocket 3.8 06:17:02 18° NW 06:19:03 27° W 06:22:33 10° SSW
COSMOS 2455 4.1 06:17:40 18° WNW 06:19:23 20° NW 06:23:45 10° N
Cosmos 1328 3.7 06:16:18 10° N 06:20:19 75° W 06:24:18 10° S
Cosmos 1850 Rocket 3.9 06:19:07 10° SSW 06:24:19 72° WNW 06:29:37 10° NNE
PSLV R/B 3.6 06:25:06 20° W 06:26:57 47° SSW 06:29:57 10° SE
ISS -2.2 06:25:49 17° W 06:27:09 21° SW 06:29:42 10° S
AQUARIUS 4.5 06:23:33 10° NNE 06:28:04 72° ESE 06:32:32 10° S
Cosmos 1140 Rocket 4.2 06:25:01 10° SW 06:29:31 30° WNW 06:34:03 10° N
SL-27 R/B 4.3 06:30:47 10° N 06:34:06 32° ENE 06:37:24 10° SE
BREEZE-M DEB (TANK) 4.2 06:31:21 12° WNW 06:34:58 19° NNW 06:37:22 10° NE
Lacrosse 5 2.7 06:33:44 13° WNW 06:37:34 32° WSW 06:42:01 10° S
CZ-4 R/B 1.8 06:33:55 10° NNE 06:38:04 68° ESE 06:42:05 10° S
SMAP 3.0 06:36:15 10° N 06:40:56 82° WNW 06:45:34 10° SSW
Cosmos 2278 Rocket 2.2 06:35:34 10° SSW 06:41:12 68° WNW 06:46:51 10° NNE
Cosmos 2074 Rocket 4.2 06:41:07 10° SSW 06:47:06 49° W 06:53:08 10° N
Cosmos 1570 Rocket 4.0 06:43:10 10° NNW 06:48:24 73° WSW 06:53:35 10° S
Cosmos 468 Rocket 4.4 06:43:54 10° NNW 06:49:03 65° ENE 06:54:13 10° SSE
Cosmos 1408 Rocket 4.0 06:48:14 10° NNW 06:52:19 40° W 06:56:25 10° SSW
GPS 2-04 Rocket1 3.7 06:51:33 10° WSW 06:55:40 49° S 06:59:49 10° E
Cosmos-2242 3.9 06:52:46 10° SW 06:56:29 27° WNW 07:00:12 10° NNW
Cosmos 1703 3.4 06:54:49 10° NNW 06:58:42 56° W 07:02:33 10° S
Cosmos 1908 3.2 06:55:39 10° S 06:59:33 80° W 07:03:30 10° N
CORIOLIS 4.1 06:54:37 10° N 06:59:59 73° WNW 07:05:22 10° SSW
